Tracking 19212 objects as of 17-Jul-2018
HD Live streaming from Space Station
objects crossing your sky now

ERS 2 DEB

Track ERS 2 DEB now!
10-day predictions


NORAD ID: 35393
Int'l Code: 1995-021G
Perigee: 756.6 km
Apogee: 765.9 km
Inclination: 98.2 °
Period: 99.9 minutes
Semi major axis: 7132 km
RCS: 0.0072 m2 (small)
Launch date: April 21, 1995
Source: European Space Agency (ESA)
Launch site: FRENCH GUIANA (FRGUI)

Note: This is SATELLITE DEBRIS
aabbcc
Your satellite tracking list
Your tracking list is empty




NASA's NSSDC Master Catalog

Two Line Element Set (TLE):
1 35393U 95021G   18197.93067838  .00000246  00000-0  88760-4 0  9995
2 35393  98.1835 183.1634 0006552  65.7642 324.4435 14.41331131784458
Source of the keplerian elements: AFSPC